Location: Observatory
(49.4490°N, 2.6360°W)
Time: 13:50:45
(UTC+01:00)

CAS-4A - Pass Details

Date: 02 May 2025
Orbit: 371 x 397 km, 43.0° (Epoch: 15 May)

Event Time Altitude Azimuth Distance (km) Brightness Sun altitude
Exits shadow 04:36:03 17° 218° (SW) 1,060 ? -10.5°
Maximum altitude 04:37:36 24° 176° (S) 826 ? -10.3°
Drops below altitude 10° 04:40:14 10° 119° (ESE) 1,395 ? -10.0°
Sets 04:42:31 0° 105° (ESE) 2,256 ? -9.7°
